User: anonymous   Login
Location: Unspecified
(0.0000°N, 0.0000°E)
Time: 22:26:42
(UTC+00:00)
Language:

UNISAT 6 - Orbit

View from above orbital plane
View from above orbital plane
View from above satellite
View from above satellite

Ground track
Ground track

The orbit data is extracted from the following two-line orbital elements,

1 40012U 14033C   18343.77822675  .00000189  00000-0  35692-4 0  9998
2 40012  97.7816 213.2853 0058398 354.9182   5.1427 14.73901674240564
Epoch (UTC): 09 December 2018 18:40:38
Eccentricity: 0.0058398
inclination: 97.7816°
perigee height: 607 km
apogee height: 689 km
right ascension of ascending node: 213.2853°
argument of perigee: 354.9182°
revolutions per day: 14.73901674
mean anomaly at epoch: 5.1427°
orbit number at epoch: 24056

The dashed part of the orbit path shows where the satellite is in the earth's shadow,  

DLR